Regional Weather Roundup
Issued by NWS

Home | Current Version | Previous Version | Text Only | Print | Product List | Glossary Off
Versions: 1 2 3 4 5 6 7 8 9 10 11 12 13 14 15 16 17 18 19 20 21 22 23 24 25 26 27 28 29 30 31 32 33 34 35 36 37 38 39 40 41 42 43 44 45 46 47 48 49 50

000
ASUS44 KMEG 121000
RWRTN
TENNESSEE HOURLY STATE WEATHER ROUNDUP
NATIONAL WEATHER SERVICE MEMPHIS TN
400 AM CST FRI FEB 12 2016

TNZ002-004-019-021-049-052-054-088>092-121100-
WEST TENNESSEE

CITY           SKY/WX    TMP DP  RH WIND       PRES   REMARKS
MEMPHIS INTL   PTCLDY    37  24  59 CALM      30.15F
NWS MEMPHIS      N/A     32 N/A N/A MISG        N/A
JACKSON        CLOUDY    33  24  69 E3        30.16F
DYERSBURG      CLOUDY    32  25  74 NE8       30.18S WCI  25
UNION CITY     MOCLDY    30  21  69 N7        30.19R WCI  23
PARIS          CLOUDY    28  19  69 NE5       30.16F WCI  23
LEXINGTON      CLEAR     32  21  64 N5        30.15R WCI  27
$$

TNZ008-025-027-028-033-062-065-066-121100-
NORTH MIDDLE TENNESSEE

CITY           SKY/WX    TMP DP  RH WIND       PRES   REMARKS
NASHVILLE      CLOUDY    34  22  61 N6        30.18R WCI  29
CLARKSVILLE    CLOUDY    31  19  61 N6        30.18F WCI  25
COOKEVILLE     MOCLDY    34  25  69 SW6       30.12R WCI  29
CROSSVILLE     CLOUDY    30  22  72 VRB3      30.10S
$$

TNZ061-075-076-078-094-096-097-121100-
SOUTH MIDDLE TENNESSEE

CITY           SKY/WX    TMP DP  RH WIND       PRES   REMARKS
TULLAHOMA      CLEAR     30  25  80 S3        30.12F
WINCHESTER     CLOUDY    34  28  80 SE3       30.14S
MCMINNVILLE    MOCLDY    32  25  74 N5        30.14R WCI  27
COLUMBIA       CLOUDY    34  28  80 CALM      30.12F
SHELBYVILLE    CLOUDY    34  28  80 N6        30.16S WCI  29
$$

TNZ017-018-042-046-047-121100-
NORTHEAST TENNESSEE

CITY           SKY/WX    TMP DP  RH WIND       PRES   REMARKS
TRI CITIES     CLOUDY    27  21  78 CALM      30.13F
$$

TNZ012-013-036-069-073-074-121100-
CENTRAL EAST TENNESSEE

CITY           SKY/WX    TMP DP  RH WIND       PRES   REMARKS
KNOXVILLE      CLOUDY    31  20  63 NE5       30.13F WCI  26
OAK RIDGE      CLOUDY    32  18  56 E3        30.16F
GATLINBURG     CLOUDY    28  21  74 NE3       30.13F
$$

TNZ083-085-099-121100-
SOUTHEAST TENNESSEE

CITY           SKY/WX    TMP DP  RH WIND       PRES   REMARKS
CHATTANOOGA    MOCLDY    35  22  58 NE3       30.17F
$$

SKY/WX REPORTED AS FAIR MEANS FEW OR NO CLOUDS BELOW
12 THOUSAND FEET.




USA.gov is the U.S. government's official web portal to all federal, state and local government web resources and services.